Location: Camden Lake
(44.4269°N, 76.8469°W)
Time: 00:54:14
(UTC-04:00)

Daily predictions for brighter satellites

Satellite Brightness Start Highest point End
(mag) Time Altitude Azimuth Time Altitude Azimuth Time Altitude Azimuth
Lacrosse 5 rocket 4.3 00:01:36 10° NNW 00:04:19 17° NNE 00:07:07 10° NE
Cosmos 2228 Rocket 4.0 00:01:01 10° N 00:05:03 34° ENE 00:05:33 33° E
Okean 3 Rocket 3.6 00:04:24 57° SW 00:05:08 71° W 00:09:34 10° N
Cosmos 1943 Rocket 3.7 00:02:58 10° NW 00:07:16 23° WSW 00:09:02 20° SW
NOSS 3-2 (A) 3.4 00:05:21 43° S 00:07:21 66° ESE 00:13:57 10° NE
USA 234 4.4 00:06:30 24° SW 00:07:55 26° SW 00:13:17 10° WNW
Cosmos 1833 Rocket 4.4 00:08:55 17° E 00:08:56 17° E 00:12:30 10° ENE
Terra 3.6 00:10:21 18° WSW 00:11:57 21° W 00:15:34 10° NW
Cosmos 1707 2.9 00:12:54 66° W 00:13:02 66° W 00:16:58 10° N
Cosmos 1656 Rocket 4.4 00:13:10 10° NW 00:18:25 39° WSW 00:19:41 35° SW
Cosmos 1486 Rocket 4.1 00:22:41 52° SE 00:23:10 54° ESE 00:28:15 10° NNE
Helios 1A Rocket 4.1 00:19:54 10° NNE 00:23:06 32° E 00:23:06 32° E
COSMOS 2487 3.8 00:23:16 33° W 00:23:42 34° WNW 00:27:03 10° N
Lacrosse 5 3.2 00:20:13 10° NW 00:24:54 36° NNE 00:29:12 12° E
Cosmos 1408 Rocket 3.4 00:25:49 78° S 00:26:07 87° E 00:30:37 10° N
ALOS 2 2.5 00:27:55 71° ESE 00:28:14 76° ENE 00:32:38 10° N
Meteor 1-24 Rocket 3.8 00:29:45 49° SSW 00:31:30 87° W 00:37:26 10° N
Cosmos 1378 3.5 00:33:25 62° NE 00:33:25 62° NE 00:36:44 10° NNE
Cosmos 1763 Rocket 3.9 00:28:25 10° NNW 00:33:40 56° ENE 00:35:03 43° ESE
Cosmos 1818 3.5 00:30:36 10° NW 00:36:06 81° WSW 00:37:06 60° SSE
CZ-2C R/B 3.8 00:33:16 10° NE 00:38:04 29° E 00:38:49 28° ESE
Cosmos 1553 Rocket 4.0 00:34:06 10° N 00:40:29 84° W 00:42:23 49° S
Cosmos 1151 Rocket 4.4 00:37:39 10° NNE 00:41:22 28° ENE 00:41:52 27° E
CZ-4B R/B 2.0 00:44:24 62° NW 00:44:24 62° NW 00:47:36 10° NNW
In-Cosmos 22 4.3 00:51:05 53° SE 00:52:07 63° E 00:57:44 10° NNE
Cosmos 1743 Rocket 3.4 00:54:24 82° SE 00:54:30 83° E 00:58:59 10° N
H-2A R/B 2.8 00:55:08 10° N 00:58:50 50° WNW 00:58:50 50° WNW
Landsat 5 3.7 00:59:37 57° WNW 00:59:37 57° WNW 01:03:18 10° NNW
Cosmos 2344 3.7 00:56:45 42° S 00:59:29 63° ESE 01:08:07 10° NE
Cosmos 1689 Rocket 3.9 01:02:29 30° NW 01:02:29 30° NW 01:04:29 10° NNW
CENTAUR R/B 3.2 01:03:42 33° SE 01:04:25 34° ESE 01:10:24 10° NE
Cosmos 2315 Rocket 4.4 00:58:25 10° N 01:04:39 57° ENE 01:06:49 39° SE
Aureole 1 Rocket 4.3 01:01:08 10° N 01:05:35 44° ENE 01:07:50 30° ESE
Cosmos 2369 3.8 01:00:25 10° NNW 01:05:59 59° WSW 01:06:47 53° SW
Cosmos 2266 Rocket 4.0 01:05:52 50° S 01:07:43 82° E 01:14:09 10° N
S3M 4.4 01:02:26 10° NNW 01:08:26 51° W 01:10:04 40° SW
Genesis I 3.5 01:05:05 10° NW 01:08:29 63° NW 01:08:29 63° NW
Cosmos 2221 4.4 01:08:00 10° NW 01:11:05 19° W 01:11:18 19° W
Cosmos 1500 Rocket 3.4 01:11:27 85° E 01:11:27 85° E 01:15:48 10° N
Cosmos 1354 Rocket 3.9 01:10:41 63° S 01:11:29 77° ESE 01:16:48 10° NNE
Cosmos 1867 3.6 01:11:28 52° SW 01:12:50 80° NW 01:18:22 10° NNE
Meteor 1-21 Rocket 4.2 01:12:13 57° S 01:13:28 85° E 01:19:10 10° NNE
Cosmos 841 Rocket 3.4 01:09:40 10° NNW 01:14:55 74° WSW 01:15:38 64° SSW
NOSS 3-2 (C) 3.9 01:11:29 27° WSW 01:14:58 61° NW 01:21:43 10° NNE
Cosmos 1328 Rocket 3.8 01:10:58 10° NNW 01:15:15 55° W 01:15:15 55° W
Cosmos 1503 Rocket 3.9 01:15:53 63° S 01:16:44 81° ESE 01:22:04 10° NNE
Meteor 2-20 4.4 01:17:37 50° SSW 01:19:21 79° W 01:25:33 10° N
TRAILBLAZER 4.4 01:14:52 10° NW 01:19:30 87° SW 01:19:40 83° S
ISS -1.0 01:19:12 10° NW 01:22:01 26° NNE 01:24:50 10° ENE
Cosmos 1980 Rocket 2.8 01:18:51 10° NNW 01:24:21 52° ENE 01:27:03 29° ESE
Cosmos 405 Rocket 4.2 01:25:50 27° WNW 01:25:53 27° WNW 01:29:09 10° NNW
ASTEX 1 4.2 01:24:47 10° NNE 01:29:28 40° E 01:30:25 36° ESE
Cosmos 1515 Rocket 4.0 01:25:39 10° NNW 01:29:57 50° W 01:29:58 50° W
PSLV R/B 4.2 01:30:09 60° E 01:30:28 62° ENE 01:34:37 10° N
Cosmos 1908 3.4 01:27:26 10° N 01:30:52 68° NNW 01:30:52 68° NNW
Meteor 2-2 Rocket 4.3 01:27:23 10° NNW 01:33:06 69° W 01:34:22 53° SSW
CZ-4C R/B 3.4 01:30:35 18° WSW 01:34:22 40° NW 01:40:11 10° NNE
Cosmos 724 4.2 01:35:19 49° SW 01:37:00 83° NW 01:42:56 10° NNE
Cosmos 1300 3.7 01:37:01 10° N 01:40:37 37° ENE 01:40:54 36° E
CZ-2C R/B 3.2 01:40:06 48° SSE 01:41:44 81° ENE 01:47:31 10° NNW
Cosmos 1697 Rocket 2.6 01:38:20 10° NNW 01:44:00 73° WSW 01:45:14 54° S
Lacrosse 5 rocket 2.7 01:40:29 10° NW 01:44:33 41° NNE 01:48:48 10° ESE
Cosmos 2082 Rocket 2.4 01:45:38 41° WSW 01:47:25 62° WNW 01:53:04 10° NNE
Cosmos 1441 Rocket 3.4 01:47:36 64° WNW 01:47:36 64° WNW 01:51:25 10° N
Cosmos 1833 Rocket 2.7 01:50:36 47° SW 01:52:13 72° WNW 01:57:52 10° NNE
Cosmos 1437 Rocket 3.1 01:49:26 10° NNW 01:52:51 53° WNW 01:52:51 53° WNW
ATLAS 5 CENTAUR R/B 4.1 01:55:46 11° ESE 01:56:35 11° ESE 01:58:08 10° E
Cosmos 2058 2.9 01:58:15 68° ESE 01:58:30 71° E 02:02:39 10° NNE
Cosmos 1726 2.8 01:55:53 10° N 01:59:27 44° ENE 01:59:42 44° E
Cosmos 1805 Rocket 3.4 02:02:19 69° SSE 02:02:48 81° E 02:07:16 10° N
Cosmos 1656 4.3 02:01:55 10° NW 02:07:06 37° WSW 02:07:36 36° WSW
Lacrosse 5 1.8 02:03:07 10° NW 02:08:05 57° SW 02:08:18 56° SW
Abrixas 3.7 02:09:58 44° N 02:09:58 44° N 02:12:38 10° ENE
Cosmos 1633 Rocket 3.4 02:08:56 50° SE 02:09:40 58° E 02:14:02 10° NNE
Cosmos 1674 3.7 02:10:04 35° WNW 02:10:04 35° WNW 02:13:26 10° N
Cosmos 2242 Rocket 3.9 02:07:25 10° N 02:11:49 61° E 02:12:53 45° SE
Cosmos 371 Rocket 3.5 02:07:07 10° NNW 02:11:58 66° ENE 02:13:50 36° SE
Cosmos 540 Rocket 3.5 02:08:34 10° NNW 02:13:39 59° WSW 02:14:31 51° SSW
Cosmos 405 3.9 02:10:52 10° NNW 02:13:43 40° WNW 02:13:43 40° WNW
Cosmos 1707 Rocket 3.4 02:11:19 10° NNW 02:15:40 72° W 02:16:06 66° SW
Cosmos 2360 4.1 02:10:26 10° NNW 02:16:11 90° E 02:18:44 35° SSE
Cosmos 2151 3.6 02:16:00 42° W 02:16:23 43° WNW 02:20:28 10° N
Landsat 4 3.9 02:16:45 58° ESE 02:17:12 65° ENE 02:20:55 10° N
CZ-2C R/B 3.5 02:13:16 10° N 02:18:26 41° WNW 02:20:21 31° WSW
Cosmos 1151 Rocket 4.4 02:15:19 10° NNW 02:18:43 25° W 02:18:43 25° W
Cosmos 1666 Rocket 3.4 02:19:35 66° S 02:20:12 89° W 02:24:33 10° N
USA 215 4.0 02:16:03 10° ENE 02:22:01 37° SE 02:24:05 30° SSE
Cosmos 1626 4.1 02:21:49 19° ESE 02:22:54 21° E 02:25:48 10° NE
Iridium 2 4.2 02:26:38 46° W 02:26:38 46° W 02:30:20 10° N
SL-16 R/B 2.6 02:23:16 10° NNW 02:28:55 64° ENE 02:33:31 16° SE
Cosmos 1470 Rocket 4.2 02:29:39 35° SE 02:31:01 47° E 02:35:16 10° NNE
Meteor 1-27 4.4 02:29:03 10° NNW 02:34:49 61° W 02:36:49 39° SSW
Cosmos 1933 Rocket 4.1 02:34:01 36° SE 02:35:22 51° E 02:39:40 10° NNE
Cosmos 1437 3.4 02:37:31 45° WNW 02:37:31 45° WNW 02:40:33 10° N
Cosmos 2322 Rocket 2.2 02:34:09 10° NNW 02:39:49 82° ENE 02:43:42 21° SSE
SL-14 R/B 3.4 02:43:23 52° WSW 02:43:46 55° W 02:47:35 10° N
Cosmos 1386 Rocket 4.4 02:41:42 34° S 02:44:38 88° E 02:50:48 10° N
JB-3 4.2 02:42:03 10° NNE 02:46:04 88° ESE 02:46:52 56° S
Sich 1 3.4 02:46:25 43° WSW 02:47:23 53° WNW 02:51:45 10° N
Cosmos 1869 4.1 02:46:13 10° N 02:50:05 48° ENE 02:52:04 25° SE
CENTAUR R/B 3.1 02:50:51 23° WSW 02:54:47 52° NW 03:01:40 10° NNE
Cosmos 1703 3.2 02:54:37 52° SSW 02:55:27 72° W 02:59:25 10° N
Cosmos 1271 Rocket 2.5 02:53:24 10° N 02:57:13 88° WSW 02:58:10 49° S
CZ-2D R/B 4.3 02:53:53 10° NE 02:57:33 19° E 03:01:15 10° SE
Cosmos 1745 Rocket 4.3 02:54:49 31° SW 02:57:44 56° WNW 03:03:58 10° N
ISS -3.4 02:55:31 10° WNW 02:58:48 86° NNE 03:02:04 10° ESE
H-2A ROCKET BODY 4.4 02:49:56 10° WSW 03:05:02 - SE 02:52:37 13° WSW
Nadezhda 1 Rocket 4.2 02:55:44 10° NNW 03:01:42 53° W 03:04:27 30° SSW
Cosmos 968 Rocket 3.6 02:59:41 35° SW 03:01:44 61° WNW 03:06:52 10° NNE
USA 161 3.0 03:03:30 22° E 03:04:05 25° ENE 03:06:08 10° NNE
SL-16 R/B 3.8 02:59:31 10° SE 03:05:16 40° ENE 03:11:03 10° N
ERS-2 2.1 03:04:07 10° N 03:07:50 70° WNW 03:08:48 46° SW
Cosmos 1980 Rocket 3.3 03:03:30 10° NW 03:08:00 25° WSW 03:08:46 24° WSW
Meteor 1-4 Rocket 2.7 03:04:28 10° NNW 03:08:13 63° W 03:09:08 45° SSW
Cosmos 1709 Rocket 4.0 03:05:15 25° S 03:09:06 85° E 03:15:23 10° N
Cosmos 2360 Rocket 2.9 03:03:36 10° NNW 03:09:08 53° ENE 03:14:38 10° SE
Cosmos 1862 Rocket 3.5 03:04:42 10° NNW 03:09:11 74° W 03:11:06 33° S
Meteor 2-10 4.1 03:04:21 10° NNW 03:09:32 62° W 03:12:14 29° SSW
NPP 3.6 03:04:47 10° NNE 03:10:12 86° WNW 03:13:03 29° SSW
IRAS Rocket 4.5 03:11:46 10° N 03:17:09 57° WNW 03:20:01 27° SW
SL-08 R/B 3.5 03:18:22 28° S 03:20:46 58° W 03:25:39 10° NNW
BREEZE-M DEB (TANK) 3.9 03:19:25 10° WNW 03:22:54 62° SSW 03:35:33 10° SE
Lacrosse 5 rocket 2.0 03:19:47 10° WNW 03:23:50 37° SW 03:25:32 27° S
Cosmos 1933 3.6 03:22:46 10° N 03:26:48 67° E 03:29:57 16° SSE
CZ-3 Stage 3 4.2 03:15:33 10° WSW 03:27:13 26° SSW 03:31:04 10° SE
Cosmos 2322 3.9 03:23:33 10° NNW 03:29:19 75° ENE 03:35:02 10° SSE
Cosmos 2219 4.4 03:25:14 13° SSE 03:29:49 36° ESE 03:35:00 10° NE
ATLAS CENTAUR R/B 2.9 03:25:50 10° NNW 03:30:23 42° NE 03:34:36 10° ESE
Cosmos 1726 4.3 03:32:54 10° WNW 03:34:22 12° W 03:34:22 12° W
Cosmos 923 Rocket 4.2 03:29:35 10° NNW 03:34:40 50° WSW 03:38:08 19° S
IRS-1C 4.1 03:29:37 10° N 03:34:58 77° WNW 03:38:29 22° SSW
Cosmos 2221 Rocket 3.7 03:31:39 10° N 03:36:12 82° E 03:40:16 13° S
Cosmos 1869 Rocket 4.0 03:33:16 17° S 03:36:32 59° E 03:40:55 10° NNE
Spot 4 Rocket 4.0 03:31:55 10° NNE 03:37:07 83° ESE 03:40:49 19° SSW
ATLAS 5 CENTAUR R/B 1.9 03:37:19 25° SSW 03:40:16 85° SE 03:45:36 10° NE
Cosmos 1680 Rocket 3.6 03:38:04 10° NNW 03:43:09 55° WSW 03:47:39 13° S
Cosmos 1455 3.1 03:39:58 10° NNW 03:43:18 30° W 03:44:25 25° WSW
Resurs 1-4 Rocket 2.9 03:38:55 10° NNE 03:44:06 49° E 03:49:13 10° S
Abrixas 3.9 03:43:10 10° WNW 03:46:07 39° N 03:49:03 10° ENE
SL-23 DEB 4.4 03:44:45 10° NW 03:47:49 50° NNE 03:51:34 10° ESE
Cosmos 2292 Rocket 3.7 03:53:54 24° SW 03:55:21 38° WNW 03:58:58 10° N
MTI 4.5 03:52:39 10° SSE 03:55:57 58° ENE 03:59:16 10° N
Cosmos 1626 3.5 03:56:33 19° WSW 03:58:12 26° WNW 04:01:23 10° NNW
Cosmos 1346 3.7 03:56:55 25° SW 03:58:14 41° WNW 04:01:12 10° N
ARIANE 5 R/B 2.5 03:55:54 10° NNE 04:01:02 87° WNW 04:05:29 13° SSW
Cosmos 304 Rocket 4.3 03:57:04 10° NW 04:01:34 40° WSW 04:05:41 12° S
COSMOS 2428 3.1 03:55:58 10° NNW 04:01:39 69° ENE 04:07:18 10° SE
Cosmos 1833 4.3 03:57:55 17° SSW 04:02:22 74° WNW 04:08:08 10° NNE
CRYOSAT 2 4.3 03:58:16 10° N 04:03:10 87° W 04:08:00 10° S
Cosmos 1703 Rocket 3.9 04:00:21 10° NNW 04:04:32 47° W 04:08:03 14° SSW
USA 215 3.4 03:58:48 10° NE 04:05:18 72° NW 04:11:25 12° WSW
IRS-1D 3.6 04:01:45 10° NNE 04:07:08 86° WNW 04:12:09 11° SSW
Cosmos 1892 4.5 04:04:28 10° SSE 04:07:54 30° E 04:11:20 10° NNE
OAO 3 Rocket 4.4 04:08:11 17° SW 04:10:06 21° SSW 04:13:39 10° SE
SME Rocket 3.9 04:04:41 10° SSE 04:10:49 70° ENE 04:15:09 10° N
SL-16 R/B 3.5 04:08:28 10° NW 04:12:28 20° W 04:15:18 14° SW
Cosmos 1898 Rocket 3.6 04:09:12 12° SSW 04:14:04 80° ESE 04:19:15 10° NNE
Cosmos 2237 Rocket 4.2 04:11:07 10° N 04:16:14 33° NE 04:21:20 10° ESE
Coronas F rocket 4.4 04:15:15 10° ESE 04:16:33 13° E 04:17:53 10° ENE
BREEZE-M DEB (TANK) 1.4 04:14:11 10° WNW 04:17:39 88° NNE 04:19:51 10° ESE
ADEOS 4.4 04:13:01 10° N 04:17:48 37° WNW 04:22:03 13° SW
Cosmos 1937 Rocket 3.9 04:13:46 10° S 04:19:00 65° ESE 04:24:15 10° NNE
Nadezhda 3 Rocket 4.3 04:13:15 10° N 04:19:25 70° E 04:25:32 10° SSE
Cosmos 292 Rocket 3.9 04:15:22 10° NNW 04:20:13 81° ENE 04:25:00 10° SSE
CZ-2C R/B 4.1 04:15:55 10° SSE 04:20:22 67° ENE 04:24:57 10° N
UNKNOWN OBJECT B 2.8 04:18:19 10° NNE 04:22:09 81° ESE 04:26:03 10° S
Cosmos 2322 Rocket 3.8 04:20:06 10° WNW 04:23:04 15° W 04:25:26 12° SW
Cosmos 389 Rocket 2.8 04:19:56 10° N 04:23:39 74° E 04:27:19 10° SSE
Okean 1-7 3.4 04:19:41 10° NNW 04:23:54 47° W 04:28:04 10° SSW
Cosmos 2237 4.2 04:18:18 10° NNW 04:24:03 79° WSW 04:29:47 10° SSE
UNK 3.9 04:20:46 10° S 04:25:13 52° W 04:29:42 10° NNW
Cosmos 2154 Rocket 4.3 04:19:37 10° S 04:25:55 73° E 04:32:16 10° NNE
Cosmos 2219 Rocket 2.9 04:24:51 10° NNW 04:30:24 58° ENE 04:35:53 10° SE
SL-24 DEB 4.2 04:28:08 10° N 04:32:49 89° W 04:37:26 10° S
ISS -1.5 04:33:07 10° W 04:34:49 14° SW 04:36:32 10° SSW
Cosmos 2150 Rocket 4.2 04:29:38 10° SSW 04:34:54 66° WNW 04:40:18 10° NNE
Cosmos 2074 Rocket 4.4 04:30:05 10° SSW 04:36:04 48° WNW 04:42:08 10° N
Meteor 2-3 Rocket 3.8 04:31:07 10° SSW 04:36:53 77° W 04:42:44 10° N
CZ-2D R/B 2.3 04:32:51 10° N 04:38:01 59° WNW 04:43:13 10° SSW
Cosmos 1674 Rocket 3.6 04:44:30 10° N 04:48:51 86° E 04:53:10 10° S
NOSS 3-1 (C) 4.4 04:43:23 10° S 04:48:54 44° ESE 04:54:58 10° NE
SL-16 R/B 3.1 04:43:10 10° SSW 04:48:54 37° W 04:54:41 10° NNW
Okean O Rocket 1.6 04:48:05 10° N 04:52:33 81° WNW 04:56:56 10° SSW
Cosmos 2360 Rocket 3.3 04:48:20 10° NW 04:52:45 24° WSW 04:57:08 10° SSW
Meteor 2-10 Rocket 3.5 04:47:48 10° NNW 04:52:52 77° W 04:58:03 10° S
